Simultaneous Nadir Overpasses (SNOs) Predictions

Prediction of SNOs near US between AQUA and NPP Satellite Orbit:

Table of predicted SNOs near US for the next 10.0 days since TLE Epoch: 11/4/2022
Index Date (AQUA) Time (AQUA) AQUA Lat,Lon Date (NPP) Time (NPP) NPP Lat,Lon Distance(km) Time Diff (sec)
1 11/07/2022 18:41:09 49.98, -84.74 11/07/2022 18:36:41 49.43, -88.01 243.14 268
2 11/10/2022 08:08:05 22.90, -93.05 11/10/2022 08:00:33 23.30, -94.90 193.91 452
3 11/10/2022 09:44:23 32.14,-115.42 11/10/2022 09:39:24 32.59,-117.78 226.95 299
